Location: Unspecified
(41.5516°N, 88.1098°W)
Time: 10:38:32
(UTC-06:00)

Resurs 1-4 Rocket - Visible Passes

Search period start: 01 March 2015 00:00
Search period end: 11 March 2015 01:00
Orbit: 801 x 814 km, 98.4° (Epoch: 28 February)

Date Brightness Start Highest point End Pass type
(mag) Time Alt. Az. Time Alt. Az. Time Alt. Az.
01 Mar 3.7 03:09:12 10° NNE 03:12:13 31° NE 03:12:13 31° NE visible
01 Mar 3.3 04:49:42 10° NNW 04:53:19 23° NW 04:53:19 23° NW visible
02 Mar 4.3 02:45:12 10° NE 02:47:37 21° ENE 02:47:37 21° ENE visible
02 Mar 2.8 04:24:44 10° N 04:28:43 35° NW 04:28:43 35° NW visible
03 Mar 4.8 02:21:42 10° NE 02:23:00 14° ENE 02:23:00 14° ENE visible
03 Mar 2.5 04:00:02 10° N 04:04:06 49° NNW 04:04:06 49° NNW visible
04 Mar 2.7 03:35:31 10° NNE 03:39:30 52° NNE 03:39:30 52° NNE visible
04 Mar 3.7 05:17:16 10° NNW 05:20:06 14° WNW 05:20:36 14° WNW visible
05 Mar 3.3 03:11:12 10° NNE 03:14:54 38° NE 03:14:54 38° NE visible
05 Mar 3.3 04:51:48 10° NNW 04:55:54 23° WNW 04:56:00 23° WNW visible
06 Mar 4.0 02:47:10 10° NE 02:50:18 25° ENE 02:50:18 25° ENE visible
06 Mar 2.7 04:26:49 10° N 04:31:23 36° WNW 04:31:23 36° WNW visible
07 Mar 4.6 02:23:35 10° NE 02:25:41 16° ENE 02:25:41 16° ENE visible
07 Mar 2.2 04:02:04 10° N 04:06:47 56° NW 04:06:47 56° NW visible
08 Mar 2.3 04:37:32 10° NNE 04:42:10 68° NNE 04:42:10 68° NNE visible
08 Mar 3.8 06:19:28 10° NNW 06:22:05 14° WNW 06:23:17 12° WNW visible
09 Mar 3.0 04:13:12 10° NNE 04:17:35 47° ENE 04:17:35 47° ENE visible
09 Mar 3.3 05:53:54 10° NNW 05:57:54 22° WNW 05:58:40 21° WNW visible
10 Mar 3.8 03:49:07 10° NE 03:52:58 29° E 03:52:58 29° E visible
10 Mar 2.7 05:28:53 10° N 05:33:38 34° WNW 05:34:04 33° WNW visible
